Regional Weather Roundup
Issued by NWS Sterling, VA

Home | Current Version | Previous Version | Text Only | Print | Product List | Glossary On
Versions: 1 2 3 4 5 6 7 8 9 10 11 12 13 14 15 16 17 18 19 20 21 22 23 24 25 26 27 28 29 30 31 32 33 34 35 36 37 38 39 40 41 42 43 44 45 46 47 48 49 50
996
ASUS41 KLWX 261210
RWRLWX

REGIONAL WEATHER ROUNDUP
NATIONAL WEATHER SERVICE BALTIMORE MD/WASHINGTON DC
800 AM EDT THU APR 26 2018

Note: "FAIR" indicates few or no clouds below 12,000 feet
with no significant weather and/or obstructions to visibility.
 TC=TEMPERATURE CELSIUS

 * =Non NWS site. Station does not report precipitation (e.g. rain,
    snow, etc.), thunder, or fog.

DCZ001-MDZ009-015-VAZ040>042-051-053>054-261300-
WASHINGTON METRO

CITY           SKY/WX    TMP DP  RH WIND       PRES   REMARKS
WASHINGTON NAT PTSUNNY   54  37  52 NW10G24   29.86R
DULLES         PTSUNNY   51  40  65 NW12      29.87R
ANDREWS AFB    FAIR      52  38  59 W14       29.85R
FT BELVOIR     FAIR      53  38  56 W8        29.88R
QUANTICO       PTSUNNY   53  40  61 NW13      29.88R
COLLEGE PARK*  FAIR      51  37  58 W5G17     29.85R
LEESBURG*      FAIR      50  41  71 W16       29.89R
MANASSAS*      FAIR      52  39  61 NW8       29.89R
GAITHERSBURG*  FAIR      49  37  63 W15       29.87R

$$

MDZ006>007-011-014-261300-
BALTIMORE METRO

CITY           SKY/WX    TMP DP  RH WIND       PRES   REMARKS
BWI AIRPORT    FAIR      51  39  63 NW15G26   29.82R
MD SCIENCE CTR   N/A     54  38  54 MISG      29.84R
MARTIN STATE   MOSUNNY   54  43  66 W12       29.84R
ANNAPOLIS      FAIR      54  38  54 W7        29.84R
FORT MEADE*    FAIR      50  37  62 NW13G20   29.86R

$$

MDZ012-015-019>023-261300-
MARYLAND EASTERN SHORE

CITY           SKY/WX    TMP DP  RH WIND       PRES   REMARKS
OCEAN CITY     FAIR      54  44  69 NW13G22   29.82R
SALISBURY      FAIR      53  42  66 NW10      29.83R
BAY BRIDGE AP* FAIR      52  39  62 NW6       29.85R
CAMBRIDGE*     SUNNY     54  39  58 NW15G22   29.85R
EASTON*        MOSUNNY   52  41  66 NW10      29.87R

$$

MDZ017>025-261300-
SOUTHERN MARYLAND

CITY           SKY/WX    TMP DP  RH WIND       PRES   REMARKS
PATUXENT RIVER FAIR      54  41  61 NW10      29.86R
ST INIGOES     FAIR      53  41  63 NW6       29.86R
LEONARDTOWN*   FAIR      52  41  66 W6        29.88R

$$

MDZ003>005-261300-
NORTH CENTRAL MARYLAND

CITY           SKY/WX    TMP DP  RH WIND       PRES   REMARKS
FREDERICK*     SUNNY     52  36  54 W3        29.88R
HAGERSTOWN APT FAIR      49  37  63 NW6       29.86R
WESTMINSTER*   FAIR      48  39  71 W8        29.83S

$$

MDZ501>502-261300-
WESTERN MARYLAND

CITY           SKY/WX    TMP DP  RH WIND       PRES   REMARKS
OAKLAND*       CLOUDY    34  34 100 NW8       29.87R VSB<1/4 WCI  27
CUMBERLAND*    FAIR      50  36  57 N8G17     29.93R

$$

VAZ025>031-261300-
SHENANDOAH VALLEY

CITY           SKY/WX    TMP DP  RH WIND       PRES   REMARKS
WINCHESTER*    FAIR      46  36  66 NW8       29.90R
FRONT ROYAL*   FAIR      52  37  58 W8        29.88R
LURAY*         FAIR      50  37  62 CALM      29.89S
NEW MARKET*    FAIR      47  38  73 SW3       29.90R
STAUNTON*      FAIR      46  40  78 S3        29.93R
WAYNESBORO*    FAIR      49  37  64 SW5       29.91R

$$

WVZ021-048>050-054>055-261300-
EASTERN WEST VIRGINIA PANHANDLE

CITY           SKY/WX    TMP DP  RH WIND       PRES   REMARKS
MARTINSBURG    FAIR      50  36  58 VRB6      29.87R
PETERSBURG*    FAIR      44  39  83 CALM      29.91R

$$

VAZ036>039-050-261300-
CENTRAL FOOTHILLS

CITY           SKY/WX    TMP DP  RH WIND       PRES   REMARKS
CHARLOTTESVILL FAIR      54  38  54 CALM      29.88R
CULPEPER*      FAIR      54  36  50 CALM      29.90R
ORANGE*        FAIR      54  37  54 CALM      29.88R
GORDONSVILLE*  FAIR      55  38  52 CALM      29.88R
WARRENTON*     FAIR      55  36  49 W6        29.88R

$$

VAZ055>057-261300-
NORTH AND CENTRAL PIEDMONT

CITY           SKY/WX    TMP DP  RH WIND       PRES   REMARKS
FREDERICKSBRG* FAIR      53  43  67 NW5       29.88R
STAFFORD*      FAIR      53  40  60 W5        29.92R

$$

NCZ024-NYZ072-PAZ021-071-VAZ022-071-261300-
OTHER REGIONAL OBSERVATIONS

CITY           SKY/WX    TMP DP  RH WIND       PRES   REMARKS
NEW YORK CITY  FAIR      57  48  72 VRB6      29.71R
PHILADELPHIA   FAIR      52  38  58 NW15      29.78R
PITTSBURGH     FAIR      40  34  79 W5        29.92S
ROANOKE        PTSUNNY   52  41  66 NW3       29.93R
RICHMOND       CLOUDY    56  49  77 NW6       29.88R
RALEIGH        PTSUNNY   54  54 100 CALM      29.89R

$$

ANZ530>537-261300-
MARINE OBSERVATIONS

STATION/POSITION TIME  TEMP    WIND        PRES
                       AIR SEA DIR/SP/G
                 (UTC) (F)     (DEG/KT/KT) (MB)
THOMAS PT LIGHT  1200   51 54  300/ 13/ 15 1011.7R
BALT KEY BRIDGE  1148   51     300/ 15/ 18 1009.6R
COVE POINT       1148   52     320/ 11/ 19 1011.6R
LEWISETTA        1148   54 56  330/ 13/ 17 1011.2R
SOLOMONS ISLAND  1148   53 53  290/  5/  9 1010.8R
PINEY POINT      1148          340/ 13/ 16   N/A

$$





USA.gov is the U.S. government's official web portal to all federal, state and local government web resources and services.